Weather History for Princeton, MN

Change the Weather History Date:

Friday, May 24, 2013

  Actual Average Record
Temperature  
Mean Temperature 49 °F -  
Max Temperature 66 °F 66 °F 80 °F (2006)
Min Temperature 32 °F 43 °F 1 °F (1999)
Degree Days  
Heating Degree Days 16    
Moisture  
Dew Point 36 °F    
Average Humidity 59    
Maximum Humidity 94    
Minimum Humidity 26    
Precipitation  
Precipitation 0.16 in - - ()
Sea Level Pressure  
Sea Level Pressure 30.31 in    
Wind  
Wind Speed 3 mph (SE)    
Max Wind Speed 14 mph    
Max Gust Speed 18 mph    
Visibility 10 miles    
Events Rain , Thunderstorm    
Averages and records for this station are not official NWS values.
T = Trace of Precipitation, MM = Missing Value Source: NWS Daily Summary

Daily Weather History Graph

Daily Weather History Graph

Search for Another Location

Airport:

Trip Planner

Search our weather history database for the weather conditions in past years. The results will help you decide how hot, cold, wet, or windy it might be!

Date:

Astronomy

May. 24, 2013 Rise Set
Actual Time 5:34 AM CDT 8:48 PM CDT
Civil Twilight 4:58 AM CDT 9:24 PM CDT
Nautical Twilight 4:11 AM CDT 10:11 PM CDT
Astronomical Twilight 3:13 AM CDT 11:10 PM CDT
Moon 8:30 PM CDT (5/24) 5:09 AM CDT (5/24)
Length of Visible Light 16h 26m
Length of Day
15h 14m
Full, 100% of the Moon is Illuminated
May 24
Full
May 24
Full
May 31
Last Quarter
Jun 8
New
Jun 16
First Quarter

Hourly Weather History & Observations

Time (CDT) Temp. Windchill Dew Point Humidity Pressure Visibility Wind Dir Wind Speed Gust Speed Precip Events Conditions
12:11 AM 44.6 °F - 33.8 °F 66% 30.35 in 10.0 mi Calm Calm - N/A   Clear
12:31 AM 39.2 °F - 33.8 °F 81% 30.35 in 10.0 mi Calm Calm - N/A   Clear
12:51 AM 41.0 °F - 32.0 °F 70% 30.35 in 10.0 mi Calm Calm - N/A   Clear
1:11 AM 39.2 °F - 32.0 °F 75% 30.36 in 10.0 mi Calm Calm - N/A   Clear
1:31 AM 41.0 °F - 32.0 °F 70% 30.36 in 10.0 mi Calm Calm - N/A   Clear
1:51 AM 42.8 °F 41.1 °F 32.0 °F 66% 30.35 in 10.0 mi East 3.5 mph - N/A   Clear
2:11 AM 42.8 °F - 30.2 °F 61% 30.35 in 10.0 mi Calm Calm - N/A   Clear
2:31 AM 37.4 °F - 32.0 °F 81% 30.36 in 10.0 mi Calm Calm - N/A   Clear
2:51 AM 37.4 °F - 32.0 °F 81% 30.36 in 10.0 mi Calm Calm - N/A   Clear
3:12 AM 35.6 °F - 30.2 °F 81% 30.37 in 10.0 mi Calm Calm - N/A   Clear
3:31 AM 35.6 °F - 30.2 °F 81% 30.36 in 10.0 mi Calm Calm - N/A   Clear
3:51 AM 33.8 °F - 30.2 °F 87% 30.36 in 10.0 mi Calm Calm - N/A   Clear
4:12 AM 33.8 °F - 32.0 °F 93% 30.36 in 10.0 mi Calm Calm - N/A   Clear
4:31 AM 33.8 °F - 30.2 °F 87% 30.36 in 10.0 mi Calm Calm - N/A   Clear
4:51 AM 33.8 °F - 30.2 °F 87% 30.36 in 10.0 mi Calm Calm - N/A   Clear
5:12 AM 33.8 °F - 30.2 °F 87% 30.37 in 10.0 mi Calm Calm - N/A   Clear
5:31 AM 33.8 °F - 32.0 °F 93% 30.37 in 10.0 mi Calm Calm - N/A   Clear
5:51 AM 32.0 °F - 30.2 °F 93% 30.38 in 10.0 mi Calm Calm - N/A   Clear
6:12 AM 33.8 °F - 30.2 °F 87% 30.38 in 10.0 mi Calm Calm - N/A   Clear
6:31 AM 35.6 °F - 33.8 °F 93% 30.38 in 10.0 mi Calm Calm - N/A   Clear
6:51 AM 39.2 °F 37.0 °F 35.6 °F 87% 30.39 in 10.0 mi ESE 3.5 mph - N/A   Clear
7:11 AM 42.8 °F 41.1 °F 35.6 °F 76% 30.39 in 10.0 mi East 3.5 mph - N/A   Clear
7:31 AM 44.6 °F 42.2 °F 35.6 °F 71% 30.39 in 10.0 mi ESE 4.6 mph - N/A   Clear
7:51 AM 46.4 °F 42.9 °F 33.8 °F 62% 30.39 in 10.0 mi ESE 6.9 mph - N/A   Clear
8:11 AM 48.2 °F - 33.8 °F 58% 30.38 in 10.0 mi ESE 8.1 mph - N/A   Clear
8:31 AM 51.8 °F - 32.0 °F 47% 30.38 in 10.0 mi ESE 5.8 mph - N/A   Clear
8:51 AM 51.8 °F - 32.0 °F 47% 30.39 in 10.0 mi SE 8.1 mph - N/A   Clear
9:11 AM 53.6 °F - 32.0 °F 44% 30.38 in 10.0 mi ESE 8.1 mph - N/A   Clear
9:31 AM 53.6 °F - 30.2 °F 41% 30.38 in 10.0 mi ESE 6.9 mph - N/A   Clear
9:51 AM 55.4 °F - 32.0 °F 41% 30.37 in 10.0 mi East 8.1 mph - N/A   Clear
10:11 AM 57.2 °F - 30.2 °F 36% 30.37 in 10.0 mi SE 10.4 mph - N/A   Clear
10:31 AM 57.2 °F - 28.4 °F 33% 30.36 in 10.0 mi ESE 10.4 mph - N/A   Clear
10:51 AM 59.0 °F - 30.2 °F 34% 30.36 in 10.0 mi ESE 9.2 mph 16.1 mph N/A   Clear
11:11 AM 60.8 °F - 30.2 °F 31% 30.35 in 10.0 mi East 10.4 mph - N/A   Clear
11:31 AM 60.8 °F - 28.4 °F 29% 30.35 in 10.0 mi ESE 11.5 mph 18.4 mph N/A   Clear
11:51 AM 62.6 °F - 28.4 °F 27% 30.34 in 10.0 mi ESE 11.5 mph - N/A   Clear
12:12 PM 62.6 °F - 30.2 °F 30% 30.34 in 10.0 mi SSE 11.5 mph - N/A   Clear
12:31 PM 62.6 °F - 30.2 °F 30% 30.34 in 10.0 mi SSE 9.2 mph - N/A   Clear
12:51 PM 64.4 °F - 30.2 °F 28% 30.32 in 10.0 mi SE 11.5 mph 17.3 mph N/A   Clear
1:12 PM 64.4 °F - 30.2 °F 28% 30.31 in 10.0 mi ESE 13.8 mph 17.3 mph N/A   Clear
1:31 PM 64.4 °F - 30.2 °F 28% 30.30 in 10.0 mi SE 8.1 mph 16.1 mph N/A   Clear
1:51 PM 64.4 °F - 30.2 °F 28% 30.29 in 10.0 mi ESE 9.2 mph - N/A   Clear
2:12 PM 64.4 °F - 30.2 °F 28% 30.28 in 10.0 mi ESE 12.7 mph 17.3 mph N/A   Clear
2:31 PM 66.2 °F - 30.2 °F 26% 30.26 in 10.0 mi SE 10.4 mph - N/A   Clear
2:51 PM 66.2 °F - 32.0 °F 28% 30.26 in 10.0 mi SSE 9.2 mph - N/A   Clear
3:11 PM 66.2 °F - 32.0 °F 28% 30.26 in 10.0 mi SSE 9.2 mph 16.1 mph N/A   Clear
3:31 PM 66.2 °F - 33.8 °F 30% 30.26 in 10.0 mi SSE 10.4 mph - N/A   Clear
3:52 PM 64.4 °F - 33.8 °F 32% 30.25 in 10.0 mi SE 13.8 mph - N/A   Clear
4:11 PM 64.4 °F - 35.6 °F 34% 30.25 in 10.0 mi SE 10.4 mph - N/A   Clear
4:31 PM 64.4 °F - 35.6 °F 34% 30.26 in 10.0 mi ESE 9.2 mph - N/A   Clear
4:52 PM 64.4 °F - 35.6 °F 34% 30.27 in 10.0 mi SE 5.8 mph - N/A   Clear
5:11 PM 64.4 °F - 35.6 °F 34% 30.28 in 10.0 mi SSW 6.9 mph - N/A   Clear
5:31 PM 64.4 °F - 35.6 °F 34% 30.28 in 10.0 mi South 4.6 mph - N/A   Clear
5:52 PM 64.4 °F - 37.4 °F 37% 30.27 in 10.0 mi SSE 4.6 mph - N/A   Clear
6:11 PM 64.4 °F - 39.2 °F 40% 30.26 in 10.0 mi SSE 3.5 mph - N/A   Clear
6:31 PM 62.6 °F - 39.2 °F 42% 30.24 in 10.0 mi SSE 6.9 mph - N/A   Clear
6:52 PM 62.6 °F - 37.4 °F 39% 30.22 in 10.0 mi SE 5.8 mph - N/A Thunderstorm Clear
7:11 PM 62.6 °F - 39.2 °F 42% 30.19 in 10.0 mi ESE 6.9 mph - N/A Thunderstorm Scattered Clouds
7:31 PM 62.6 °F - 39.2 °F 42% 30.21 in 10.0 mi ESE 3.5 mph - N/A   Scattered Clouds
7:51 PM 60.8 °F - 41.0 °F 48% 30.23 in 10.0 mi South 4.6 mph - N/A Thunderstorm Mostly Cloudy
8:11 PM 59.0 °F - 44.6 °F 59% 30.23 in 7.0 mi Calm Calm - N/A Rain Rain
8:31 PM 55.4 °F - 50.0 °F 82% 30.24 in 10.0 mi Calm Calm - N/A Rain Rain
8:51 PM 53.6 °F - 48.2 °F 82% 30.24 in 7.0 mi Calm Calm - N/A Rain Light Rain
9:11 PM 53.6 °F - 50.0 °F 88% 30.23 in 10.0 mi ENE 4.6 mph - 0.01 in Rain Rain
9:32 PM 53.6 °F - 51.8 °F 94% 30.23 in 7.0 mi Calm Calm - 0.03 in Rain Light Rain
9:51 PM 53.6 °F - 50.0 °F 88% 30.24 in 10.0 mi East 4.6 mph - 0.05 in Rain Rain
10:11 PM 53.6 °F - 50.0 °F 88% 30.26 in 5.0 mi Calm Calm - 0.02 in Rain Rain
10:32 PM 53.6 °F - 50.0 °F 88% 30.24 in 10.0 mi East 5.8 mph - 0.06 in Rain Rain
10:51 PM 53.6 °F - 50.0 °F 88% 30.25 in 7.0 mi Calm Calm - 0.09 in Rain Rain
11:11 PM 53.6 °F - 50.0 °F 88% 30.26 in 4.0 mi Calm Calm - 0.01 in Rain Rain
11:32 PM 53.6 °F - 50.0 °F 88% 30.27 in 10.0 mi Calm Calm - 0.02 in Rain Light Rain
11:51 PM 53.6 °F - 51.8 °F 94% 30.27 in 7.0 mi Calm Calm - 0.02 in   Drizzle